Date String (YYYY-MM-DD hh:mm:ss) UTC,Instrument flags,Ambient pressure (hPa),Sample flow (lpm),Bypass flow (lpm),Sample temperature (°C),Ambient temperature (°C),ASC tube jacket temperature (°C),LED temperature (°C),Box temperature (°C),Sample RH (%),Span deviation,Mass concentration (μg/m³),Mass concentration (μg/m³),Mass concentration (μg/m³)
DateTimeUTC,F1_M11,P_M11,Q1_M11,Q2_M11,T1_M11,T2_M11,T3_M11,T4_M11,T5_M11,U1_M11,ZSPAN_M11,X0_M11,X2_M11,X1_M11
2023-01-03 09:00:00,,0817.3,5.03,0.00,22.1,22.7,00.0,30.9,24.1,13.6,0000.0,0003.31,0002.62,0002.42
2023-01-03 09:01:00,,0817.1,4.99,0.00,22.2,22.3,00.0,30.9,24.1,13.5,0000.0,0002.87,0002.49,0002.35
2023-01-03 09:02:00,,0817.2,4.95,0.00,22.2,21.8,00.0,31.0,24.0,13.5,0000.0,0002.84,0002.44,0002.29
2023-01-03 09:03:00,,0817.1,5.04,0.00,22.2,21.3,00.0,31.0,23.9,13.4,0000.0,0002.73,0002.36,0002.22
2023-01-03 09:04:00,,0817.3,5.05,0.00,22.1,20.9,00.0,31.0,23.8,13.4,0000.0,0002.63,0002.27,0002.15
2023-01-03 09:05:00,,0817.1,5.01,0.00,22.1,20.7,00.0,31.0,23.7,13.4,0000.0,0002.63,0002.24,0002.11
2023-01-03 09:06:00,,0816.9,4.96,0.00,22.0,20.4,00.0,31.0,23.6,13.4,0000.0,0002.56,0002.19,0002.06
2023-01-03 09:07:00,,0817.0,4.98,0.00,22.0,20.2,00.0,31.0,23.5,13.3,0000.0,0002.48,0002.11,0001.98
2023-01-03 09:08:00,,0817.0,4.98,0.00,21.9,20.1,00.0,30.9,23.5,13.3,0000.0,0002.38,0002.00,0001.88
2023-01-03 09:09:00,,0817.0,5.09,0.00,21.9,20.0,00.0,30.9,23.4,13.3,0000.0,0002.25,0001.89,0001.78
2023-01-03 09:10:00,,0816.8,4.96,0.00,21.8,19.9,00.0,30.9,23.3,13.3,0000.0,0002.08,0001.80,0001.69
2023-01-03 09:11:00,,0816.9,5.06,0.00,21.8,19.8,00.0,30.9,23.2,13.3,0000.0,0001.90,0001.69,0001.59
2023-01-03 09:12:00,,0816.8,4.98,0.00,21.7,19.8,00.0,30.8,23.2,13.3,0000.0,0001.81,0001.60,0001.50
2023-01-03 09:13:00,,0816.8,5.02,0.00,21.8,20.8,00.0,30.8,23.5,13.2,0000.0,0001.69,0001.50,0001.42
2023-01-03 09:14:00,,0817.0,5.00,0.00,21.9,22.0,00.0,30.7,23.8,13.1,0000.0,0001.61,0001.42,0001.33
2023-01-03 09:15:00,,0816.9,5.01,0.00,22.1,22.6,00.0,30.8,24.1,12.9,0000.0,0001.50,0001.33,0001.26
2023-01-03 09:16:00,,0816.7,4.98,0.00,22.1,22.2,00.0,30.8,24.1,12.9,0000.0,0001.37,0001.22,0001.16
2023-01-03 09:17:00,,0816.7,4.98,0.00,22.1,21.6,00.0,30.9,23.9,12.8,0000.0,0001.27,0001.12,0001.05
2023-01-03 09:18:00,,0817.1,5.07,0.00,22.1,21.2,00.0,30.9,23.8,12.8,0000.0,0001.22,0001.07,0001.00
2023-01-03 09:19:00,,0817.0,5.01,0.00,22.0,20.8,00.0,30.9,23.7,12.8,0000.0,0001.17,0001.03,0000.96
2023-01-03 09:20:00,,0817.0,4.98,0.00,22.0,20.6,00.0,30.9,23.6,12.8,0000.0,0001.12,0000.99,0000.93
2023-01-03 09:21:00,,0816.9,4.97,0.00,22.0,20.4,00.0,30.9,23.6,12.8,0000.0,0001.07,0000.96,0000.91
2023-01-03 09:22:00,,0816.9,5.04,0.00,22.0,20.3,00.0,30.9,23.5,12.7,0000.0,0001.02,0000.92,0000.88
2023-01-03 09:23:00,,0817.0,5.01,0.00,21.9,20.1,00.0,30.9,23.4,12.7,0000.0,0000.96,0000.89,0000.85
2023-01-03 09:24:00,,0816.6,4.98,0.00,21.9,20.0,00.0,30.9,23.4,12.7,0000.0,0000.92,0000.86,0000.82
2023-01-03 09:25:00,,0816.7,4.98,0.00,21.8,19.9,00.0,30.9,23.3,12.7,0000.0,0000.90,0000.84,0000.80
2023-01-03 09:26:00,,0816.9,4.97,0.00,21.8,19.8,00.0,30.8,23.3,12.7,0000.0,0000.88,0000.81,0000.78
2023-01-03 09:27:00,,0816.8,5.07,0.00,21.7,19.8,00.0,30.8,23.3,12.7,0000.0,0000.84,0000.78,0000.76
2023-01-03 09:28:00,,0816.8,5.01,0.00,21.7,19.7,00.0,30.8,23.2,12.8,0000.0,0000.79,0000.74,0000.73
2023-01-03 09:29:00,,0816.7,4.97,0.00,21.7,20.1,00.0,30.7,23.3,12.8,0000.0,0000.76,0000.71,0000.70
2023-01-03 09:30:00,,0816.7,5.06,0.00,21.8,21.3,00.0,30.7,23.6,12.7,0000.0,0000.76,0000.71,0000.69
2023-01-03 09:31:00,,0816.7,5.02,0.00,21.9,22.3,00.0,30.7,23.9,12.7,0000.0,0000.77,0000.70,0000.68
2023-01-03 09:32:00,,0816.7,4.98,0.00,22.0,22.3,00.0,30.7,24.0,12.6,0000.0,0000.79,0000.70,0000.67
2023-01-03 09:33:00,,0816.6,4.98,0.00,22.0,21.7,00.0,30.8,23.9,12.5,0000.0,0000.79,0000.69,0000.64
2023-01-03 09:34:00,,0816.7,4.97,0.00,22.0,21.2,00.0,30.8,23.7,12.5,0000.0,0000.78,0000.67,0000.62
2023-01-03 09:35:00,,0816.6,5.06,0.00,21.9,20.8,00.0,30.8,23.6,12.5,0000.0,0000.75,0000.64,0000.60
2023-01-03 09:36:00,,0816.6,5.00,0.00,21.9,20.5,00.0,30.8,23.5,12.6,0000.0,0000.74,0000.63,0000.58
2023-01-03 09:37:00,,0816.6,4.97,0.00,21.9,20.3,00.0,30.8,23.4,12.7,0000.0,0000.72,0000.61,0000.56
2023-01-03 09:38:00,,0816.6,5.03,0.00,21.8,20.1,00.0,30.8,23.4,12.7,0000.0,0000.74,0000.60,0000.54
2023-01-03 09:39:00,,0816.8,5.02,0.00,21.8,20.1,00.0,30.8,23.3,12.8,0000.0,0000.76,0000.60,0000.53
2023-01-03 09:40:00,,0816.8,4.99,0.00,21.7,20.0,00.0,30.7,23.3,12.8,0000.0,0000.76,0000.60,0000.53
2023-01-03 09:41:00,,0816.8,4.98,0.00,21.7,19.9,00.0,30.7,23.2,12.9,0000.0,0000.73,0000.58,0000.52
2023-01-03 09:42:00,,0816.9,5.06,0.00,21.7,19.8,00.0,30.7,23.2,12.9,0000.0,0000.74,0000.57,0000.51
2023-01-03 09:43:00,,0816.9,4.98,0.00,21.6,19.9,00.0,30.7,23.2,12.8,0000.0,0000.72,0000.56,0000.49
2023-01-03 09:44:00,,0817.1,4.98,0.00,21.7,20.4,00.0,30.6,23.3,12.8,0000.0,0000.68,0000.54,0000.48
2023-01-03 09:45:00,,0817.0,5.00,0.00,21.8,21.5,00.0,30.6,23.6,12.7,0000.0,0000.67,0000.52,0000.48
2023-01-03 09:46:00,,0817.0,5.03,0.00,21.9,22.6,00.0,30.6,24.0,12.6,0000.0,0000.68,0000.53,0000.48
2023-01-03 09:47:00,,0817.1,4.99,0.00,22.0,22.6,00.0,30.7,24.1,12.5,0000.0,0000.67,0000.52,0000.48
2023-01-03 09:48:00,,0816.9,4.95,0.00,22.1,22.2,00.0,30.8,24.0,12.4,0000.0,0000.66,0000.52,0000.47
2023-01-03 09:49:00,,0817.0,5.00,0.00,22.1,21.8,00.0,30.8,24.0,12.3,0000.0,0000.63,0000.51,0000.48
2023-01-03 09:50:00,,0816.9,5.02,0.00,22.1,21.6,00.0,30.8,24.0,12.3,0000.0,0000.64,0000.51,0000.47
2023-01-03 09:51:00,,0816.9,5.03,0.00,22.1,21.4,00.0,30.8,23.9,12.3,0000.0,0000.62,0000.50,0000.46
2023-01-03 09:52:00,,0817.1,5.00,0.00,22.1,21.2,00.0,30.9,23.9,12.2,0000.0,0000.60,0000.49,0000.45
2023-01-03 09:53:00,,0816.9,5.01,0.00,22.1,21.1,00.0,30.9,23.9,12.2,0000.0,0000.55,0000.47,0000.44
2023-01-03 09:54:00,,0817.1,4.97,0.00,22.1,21.0,00.0,30.9,23.9,12.2,0000.0,0000.54,0000.46,0000.44
2023-01-03 09:55:00,,0816.9,4.98,0.00,22.1,20.9,00.0,30.9,23.8,12.2,0000.0,0000.54,0000.46,0000.44
2023-01-03 09:56:00,,0816.8,5.03,0.00,22.1,20.8,00.0,30.9,23.8,12.2,0000.0,0000.54,0000.46,0000.43
2023-01-03 09:57:00,,0816.9,4.97,0.00,22.1,20.8,00.0,30.9,23.8,12.2,0000.0,0000.53,0000.45,0000.42
2023-01-03 09:58:00,,0816.9,5.05,0.00,22.1,20.8,00.0,30.9,23.8,12.2,0000.0,0000.53,0000.45,0000.42
2023-01-03 09:59:00,,0816.8,4.99,0.00,22.1,20.7,00.0,30.9,23.8,12.2,0000.0,0000.54,0000.44,0000.42
